CZ-6A DEB

Satellite information

Favourite Embed

Satellite Type and Status

DEBRISIN ORBIT

Key statistics

Satellite CZ-6A DEB at a glance.

Uptime

334

Days in orbit

Revolutions

≈ 14.8

Per day

Orbit

LEO

Low Earth Orbit

Inclination

88.7

Latest

Satellite identification and parameters

Extended collection of information and parameters for CZ-6A DEB.

Object identification

Identified? True

Debris? True

Object name: CZ-6A DEB

International designator: 2024-140NU

Object number (NORAD): 61102

Object ID (CCSDS): 61102

Country: PEOPLES REPUBLIC OF CHINA (PRC)

Current information (Y/N): Y

RCS size: SMALL

Orbital parameters

Period: 97.39 minutes

Inclination: 88.7318 deg

SMA: 7011.894 km

Apoapsis: 738.159 km

Periapsis: 529.359 km

RAAN: 298.9934 deg

Eccentricy: 0.014889

Argument of periapsis: 291.9828 deg

Mean anomaly: 66.5629 deg

Mean motion: 14.7859681 rev/day

Mean motion (dot): 0.0000615 rev/day2

B* drag term: 0.000695 1/REarth

Two-line elements (TLE)

Creation date: July 5, 2025, 5:45 p.m.

Reference frame: TEME

Reference center: EARTH

Epoch: July 5, 2025, 7:04 a.m. UTC

TLE line 0: 0 CZ-6A DEB

TLE line 1: 1 61102U 24140NU 25186.29461558 .00006150 00000-0 69500-3 0 9998

TLE line 2: 2 61102 88.7318 298.9934 0148890 291.9828 66.5629 14.78596810 45811

Live tracking on map

Real-time ground track for satellite CZ-6A DEB.

In-orbit conjunctions

A list of the most updated potential collisions computed for object CZ-6A DEB.

Target Orbit TCA Probability of collision Miss distance Type
CZ-6A DEB SSO 2024-12-24 01:16:55 0.0001828347 898.0 (m) DEBRIS
COSMOS 2251 DEB LEO 2024-11-23 08:25:40 0.000110916 266.0 (m) DEBRIS
SL-8 R/B LEO 2024-11-21 14:57:09 0.0003899722 857.0 (m) ROCKET BODY
THOR ABLESTAR DEB LEO 2024-11-17 14:50:39 0.0001061812 429.0 (m) DEBRIS
NOAA 8 SSO 2024-10-25 16:24:56 0.0001369538 227.0 (m) PAYLOAD

Associated space launch

18 Low Earth Orbit communication satellites with Ku, Q and V band payloads for the G60 constellation operated by Shanghai Spacecom Satellite Technology (SSST) with funding backed by the Shanghai local government. Initial constellation will consist of 1296 satellites by 2027 with long term plans to expand it to 12000 satellites.

CZ-6A DEB was lifted into orbit during the mission ‘Long March 6A | G60 Polar Group 01’, on board a Long March 6A space rocket.

The launch took place on Aug. 6, 2024, 6:42 a.m. from Launch Complex 9A.

For more information about the launch, click the button.

Launch to space Long March 6A | G60 Polar Group 01
Long March 6A | G60 Polar Group 01

Agency: N/A

Status: Launch Successful

Launch date: Aug. 6, 2024, 6:42 a.m. UTC

Rocket: Long March 6A

Launch pad: Launch Complex 9A

Location: Taiyuan Satellite Launch Center, People's Republic of China

...

Latest news about this satellite

News about space launch
Brightness of first Chinese broadband constellation satellites alarms astronomers

The first satellites of a Chinese broadband constellation are significantly brighter than those of Western systems, posing a new challenge for astronomers.

News about space launch
Chinese rocket stage breaks up into cloud of more than 700 pieces of space debris

HELSINKI — A Chinese Long March 6A rocket’s upper stage has fragmented into a cloud of over 700 pieces of space debris, adding to concerns about long-term orbital safety. China […]

News about space launch
China's Thousand Sails Megaconstellation Kicks Off with Dangerous Debris Field

China's Thousand Sails Megaconstellation Kicks Off with Dangerous Debris Field


Newsletter sign-up

Weekly statistics, charts and insights to help you stay on top of the space industry.